Stations météo

réclame
Mon MeteoGroup
Schleswig, Allemagne (10035): Température de l'air & dewpoint: 12.12.2017 17:00:00 - 18.12.2017 17:00:00 (CET)Schleswig, Allemagne (10035): Température de l'air 5cm & Température de l'air -5cm: 12.12.2017 17:00:00 - 18.12.2017 17:00:00 (CET)Schleswig, Allemagne (10035): Température de l'air -20cm & Température de l'air -100cm: 12.12.2017 17:00:00 - 18.12.2017 17:00:00 (CET)Schleswig, Allemagne (10035): Vitesse du vent & gusts: 12.12.2017 17:00:00 - 18.12.2017 17:00:00 (CET)Schleswig, Allemagne (10035): Direction du vent: 12.12.2017 17:00:00 - 18.12.2017 17:00:00 (CET)Schleswig, Allemagne (10035): reduced air pressure: 12.12.2017 17:00:00 - 18.12.2017 17:00:00 (CET)Schleswig, Allemagne (10035): visibility: 12.12.2017 17:00:00 - 18.12.2017 17:00:00 (CET)Schleswig, Allemagne (10035): Ensoleillement: 12.12.2017 17:00:00 - 18.12.2017 17:00:00 (CET)Schleswig, Allemagne (10035): Quantités de précipitations: 12.12.2017 17:00:00 - 18.12.2017 17:00:00 (CET)
Date & Time tt [°C] td [°C] tt 5cm [°C] tt -5cm [°C] tt -20cm [°C] tt -100cm [°C] ff [km/h] ff [knt] fx [km/h] fx [knt] dd ppp [hPa] vv [km] sd [min] rr [mm]
18.12.2017 17:00:00 1,9 0,6 1,4 0,1 1,3 5,7 11 6 21 11 WSW 1025,9 8 0 0,0
18.12.2017 16:00:00 2,1 0,5 1,6 0,1 1,3 5,7 11 6 19 10 WSW 1025,3 10 0 0,0
18.12.2017 15:00:00 2,2 0,8 1,9 0,1 1,3 5,7 9 5 16 9 SW 1024,7 8 0 0,0
18.12.2017 14:00:00 2,2 0,7 1,9 0,1 1,3 5,7 8 5 16 8 SSW 1024,5 8 0 0,0
18.12.2017 13:00:00 2,2 0,5 1,9 0,1 1,3 5,7 9 5 15 8 SSW 1024,2 9 0 0,0
18.12.2017 12:00:00 1,8 0,4 1,4 0,1 1,3 5,7 5 3 10 5 SSW 1024,0 6 0 0,0
18.12.2017 11:00:00 1,5 0,3 1,1 0,1 1,3 5,7 7 4 13 7 S 1023,4 6 0 0,0
18.12.2017 10:00:00 1,5 0,4 1,0 0,1 1,3 5,7 8 4 22 12 S 1022,5 5 0 0,0
18.12.2017 09:00:00 1,4 0,4 0,9 0,1 1,3 5,7 7 4 16 9 SSE 1022,0 3,8 0 0,0
18.12.2017 08:00:00 1,4 0,7 0,8 0,1 1,3 5,7 5 3 16 9 SSE 1021,3 3,5 0 0,0
18.12.2017 07:00:00 1,3 0,6 0,9 0,1 1,3 5,7 6 4 16 8 SSE 1020,3 3,0 0 0,0
18.12.2017 06:00:00 1,2 0,7 0,8 0,1 1,3 5,8 7 4 16 8 SSE 1019,2 3,0 0 0,0
18.12.2017 05:00:00 1,1 0,7 0,8 0,1 1,3 5,8 8 4 18 10 SSE 1018,6 3,0 0 0,0
18.12.2017 04:00:00 0,9 0,6 0,6 0,1 1,3 5,8 10 5 24 13 S 1018,4 3,0 0 0,0
18.12.2017 03:00:00 0,8 0,5 0,5 0,1 1,4 5,8 12 7 24 13 SSW 1018,5 3,0 0 0,0
18.12.2017 02:00:00 0,7 0,3 0,5 0,1 1,4 5,8 13 7 28 15 S 1018,1 4,0 0 0,0
18.12.2017 01:00:00 0,6 0,1 0,2 0,1 1,4 5,8 10 5 18 10 S 1018,2 5 0 0,0
18.12.2017 00:00:00 0,4 -0,1 -0,1 0,1 1,4 5,8 10 5 19 11 S 1018,4 5 0 0,0
17.12.2017 23:00:00 0,4 -0,1 -0,2 0,1 1,4 5,8 11 6 18 10 S 1018,9 6 0 0,0
17.12.2017 22:00:00 -0,1 -0,8 -0,7 0,0 1,4 5,8 11 6 19 10 S 1019,4 10 0 0,0
17.12.2017 21:00:00 -0,3 -1,2 -1,0 0,0 1,4 5,8 11 6 21 11 S 1019,4 15 0 0,0
17.12.2017 20:00:00 -0,5 -1,4 -1,7 0,1 1,4 5,8 11 6 17 9 S 1019,4 15 0 0,0
17.12.2017 19:00:00 -0,4 -1,4 -1,8 0,1 1,4 5,8 11 6 16 9 S 1019,7 18 0 0,0
17.12.2017 18:00:00 -0,5 -1,3 -1,9 0,1 1,4 5,8 11 6 19 10 S 1020,0 18 0 0,0
17.12.2017 17:00:00 -0,1 -1,0 -1,8 0,1 1,4 5,8 9 5 12 6 SSW 1020,2 15 0 0,0
17.12.2017 16:00:00 0,7 -0,8 -0,9 0,1 1,4 5,8 8 5 16 9 SSW 1020,2 30 43 0,0
17.12.2017 15:00:00 2,3 -2,0 2,1 0,1 1,4 5,8 8 4 11 6 WSW 1020,0 30 60 0,0
17.12.2017 14:00:00 2,5 -1,8 1,7 0,1 1,4 5,8 7 4 11 6 W 1019,9 30 60 0,0
17.12.2017 13:00:00 2,0 -1,1 2,8 0,1 1,5 5,8 6 4 13 7 W 1019,9 30 60 0,0
17.12.2017 12:00:00 0,0 -1,2 -1,6 0,0 1,5 5,8 7 4 16 8 WNW 1019,9 30 60 0,0
17.12.2017 11:00:00 -0,7 -1,7 -1,8 0,1 1,5 5,8 9 5 14 8 WNW 1019,8 25 59 0,0
17.12.2017 10:00:00 -1,4 -2,1 -2,5 0,1 1,5 5,8 8 4 - - WNW 1019,2 25 - 0,0
17.12.2017 09:00:00 -1,6 -4,8 - - - - 7 4 - - WNW 1018,4 25 - 0,0
17.12.2017 08:00:00 -0,4 -0,9 - - - - 7 4 - - WNW 1017,5 25 - 0,0
17.12.2017 07:00:00 -0,4 -1,0 - - - - 7 4 - - NW 1017,5 30 0 0,0
17.12.2017 06:00:00 -0,3 -1,7 -1,4 0,1 1,5 5,8 12 6 21 11 NNW 1015,9 30 0 0,0
17.12.2017 05:00:00 -0,5 -2,0 -1,2 0,1 1,6 5,8 14 8 33 18 NNW 1015,1 30 0 0,0
17.12.2017 04:00:00 -1,1 -2,8 -2,5 0,1 1,6 5,8 13 7 23 12 NW 1014,2 40 0 0,0
17.12.2017 03:00:00 -1,1 -2,9 -2,7 0,1 1,6 5,9 11 6 18 10 NW 1013,4 40 0 0,0
17.12.2017 02:00:00 -1,1 -2,4 -3,4 0,2 1,6 5,9 12 6 18 10 WNW 1012,7 30 0 0,0
17.12.2017 01:00:00 -1,3 -2,2 -4,0 0,2 1,6 5,9 11 6 18 10 W 1012,2 30 0 0,0
17.12.2017 00:00:00 -1,0 -1,9 -4,2 0,2 1,6 5,9 10 6 14 7 WNW 1011,4 30 0 0,0
16.12.2017 23:00:00 -1,0 -1,7 -4,0 0,2 1,7 5,9 8 4 15 8 WNW 1010,6 40 0 0,0
16.12.2017 22:00:00 -0,3 -1,2 -3,1 0,3 1,7 5,9 11 6 19 10 WNW 1009,8 30 0 0,0
16.12.2017 21:00:00 0,5 -0,5 -1,4 0,3 1,7 5,9 14 8 19 10 WNW 1009,1 30 0 0,0
16.12.2017 20:00:00 0,9 -0,5 -1,1 0,3 1,7 5,9 13 7 23 13 WNW 1008,4 30 0 0,0
16.12.2017 19:00:00 1,0 -0,4 -2,3 0,3 1,7 5,9 12 7 18 10 W 1007,6 40 0 0,0
16.12.2017 18:00:00 1,4 0,0 -1,6 0,3 1,8 5,9 12 6 18 10 W 1007,0 30 0 0,0
16.12.2017 17:00:00 2,0 0,6 0,0 0,3 1,8 5,9 12 7 19 11 W 1006,3 35 0 0,0
16.12.2017 16:00:00 2,1 0,5 -0,3 0,4 1,8 5,9 10 5 28 15 W 1005,7 40 26 0,0
16.12.2017 15:00:00 3,7 1,0 3,7 0,7 1,8 5,9 13 7 25 13 W 1005,0 40 43 0,0
16.12.2017 14:00:00 4,3 1,3 4,5 0,7 1,8 5,9 13 7 22 12 W 1004,6 40 58 0,0
16.12.2017 13:00:00 3,9 1,4 4,8 0,3 1,9 5,9 10 5 21 11 W 1004,3 40 60 0,0
16.12.2017 12:00:00 2,4 1,0 0,0 0,3 1,9 5,9 13 7 19 10 W 1003,9 40 55 0,0
16.12.2017 11:00:00 1,5 0,5 -0,3 0,3 1,9 5,9 11 6 18 10 W 1003,8 40 60 0,0
16.12.2017 10:00:00 0,7 0,5 -0,5 0,3 2,0 5,9 11 6 15 8 W 1003,2 30 4 0,0
16.12.2017 09:00:00 0,2 -0,2 -2,6 0,4 2,0 5,9 12 6 16 9 W 1002,5 35 0 0,0
16.12.2017 08:00:00 0,6 0,2 -1,7 0,4 2,1 5,9 10 5 16 8 W 1001,9 30 0 0,0
16.12.2017 07:00:00 1,2 0,7 -0,1 0,4 2,2 5,9 12 7 19 10 WSW 1001,3 40 0 0,0
16.12.2017 06:00:00 1,2 0,6 -0,1 0,4 2,2 5,9 12 7 20 11 W 1001,0 30 0 0,0
16.12.2017 05:00:00 1,1 0,7 -0,1 0,5 2,3 5,9 11 6 18 10 W 1000,7 30 0 0,0
16.12.2017 04:00:00 0,5 0,2 -0,8 0,5 2,4 5,9 12 6 17 9 WSW 1000,3 30 0 0,0
16.12.2017 03:00:00 0,7 0,4 -1,1 0,6 2,5 5,9 10 5 16 9 WSW 999,9 22 0 0,0
16.12.2017 02:00:00 1,0 0,6 -1,4 0,8 2,6 5,9 9 5 15 8 WSW 999,4 15 0 0,0
16.12.2017 01:00:00 1,6 1,2 0,2 1,7 2,7 5,9 10 5 23 13 WSW 999,1 9 0 0,1
16.12.2017 00:00:00 2,3 2,0 2,1 1,8 2,7 5,9 13 7 22 12 WSW 999,1 5 0 0,0
15.12.2017 23:00:00 2,5 2,2 2,0 1,8 2,8 5,9 12 7 21 12 WSW 998,8 5 0 0,0
15.12.2017 22:00:00 2,4 1,8 1,8 2,2 2,8 5,9 12 7 21 11 WSW 998,6 5 0 0,0
15.12.2017 21:00:00 2,4 1,8 1,8 2,2 2,8 5,9 11 6 24 13 SW 998,2 4,8 0 0,0
15.12.2017 20:00:00 2,4 1,9 2,2 2,4 2,8 5,9 12 6 22 12 SW 997,8 4,5 0 0,2
15.12.2017 19:00:00 2,3 1,6 2,0 2,5 2,8 5,9 13 7 24 13 WSW 997,3 4,0 0 0,1
15.12.2017 18:00:00 2,7 1,4 2,4 2,6 2,8 5,9 14 8 32 17 SW 996,8 5 0 0,0
15.12.2017 17:00:00 3,0 2,1 2,8 2,8 2,7 5,9 15 8 24 13 SW 996,5 4,2 0 0,0
15.12.2017 16:00:00 3,1 2,2 2,9 3,0 2,7 5,9 14 8 25 14 SW 996,1 5 0 0,0
15.12.2017 15:00:00 3,4 2,4 3,3 3,2 2,5 5,9 11 6 22 12 WSW 995,5 5 0 0,0
15.12.2017 14:00:00 3,5 2,5 3,5 3,0 2,4 5,9 14 8 24 13 WSW 994,8 5 0 0,0
15.12.2017 13:00:00 3,3 2,6 3,2 2,8 2,4 5,9 11 6 20 11 SW 994,2 6 0 0,0
15.12.2017 12:00:00 3,0 2,5 2,8 2,5 2,3 5,9 10 5 20 11 WSW 993,9 5 0 0,2
15.12.2017 11:00:00 2,5 2,0 2,3 2,0 2,2 5,9 10 6 22 12 WSW 993,5 5 0 0,0
15.12.2017 10:00:00 2,1 1,5 1,9 1,9 2,2 5,9 13 7 24 13 WSW 992,8 6 0 0,4
15.12.2017 09:00:00 2,1 1,3 1,7 1,8 2,2 5,9 13 7 29 15 SW 992,1 6 0 0,0
15.12.2017 08:00:00 2,1 1,2 1,7 1,8 2,2 5,9 11 6 23 13 SW 991,5 6 0 0,3
15.12.2017 07:00:00 2,3 1,3 1,7 1,8 2,1 5,9 13 7 23 12 SW 990,7 6 0 0,1
15.12.2017 06:00:00 2,4 1,5 2,0 1,8 2,1 6,0 13 7 27 14 SW 990,2 5 0 0,0
15.12.2017 05:00:00 2,4 1,6 1,9 1,8 2,1 6,0 13 7 28 15 SW 989,5 5 0 0,0
15.12.2017 04:00:00 2,4 1,4 1,9 1,7 2,0 6,0 16 9 30 16 SSW 988,9 5 0 0,1
15.12.2017 03:00:00 2,6 1,5 2,1 1,7 2,0 6,0 16 9 27 15 SSW 988,8 5 0 0,0
15.12.2017 02:00:00 2,7 1,7 2,4 1,6 1,9 6,0 15 8 29 16 SSW 988,2 8 0 0,0
15.12.2017 01:00:00 2,7 1,8 2,2 1,5 1,9 6,0 16 9 29 16 SW 987,8 8 0 0,0
15.12.2017 00:00:00 2,5 1,5 2,0 1,5 1,8 6,0 17 9 30 16 SW 987,7 10 0 0,0
14.12.2017 23:00:00 2,5 1,7 2,1 1,5 1,8 6,0 17 9 31 17 SW 987,6 8 0 0,0
14.12.2017 22:00:00 2,6 1,7 2,1 1,3 1,7 6,0 16 9 32 17 SW 987,6 8 0 0,0
14.12.2017 21:00:00 2,4 1,7 2,0 1,0 1,7 6,0 16 9 39 21 SW 987,4 8 0 0,0
14.12.2017 20:00:00 2,1 1,4 1,4 0,9 1,7 6,0 17 9 37 20 SW 987,2 15 0 0,0
14.12.2017 19:00:00 2,4 1,7 1,6 0,9 1,7 6,0 18 10 40 21 SW 986,5 12 0 0,0
14.12.2017 18:00:00 2,5 1,7 1,9 1,1 1,7 6,1 21 12 39 21 SW 986,4 15 0 0,2
14.12.2017 17:00:00 1,8 1,0 1,3 1,0 1,7 6,1 14 8 27 15 SW 986,8 15 0 0,3
14.12.2017 16:00:00 2,0 1,3 1,5 1,0 1,6 6,1 14 8 45 24 SW 986,2 15 0 1,6
14.12.2017 15:00:00 2,4 1,5 1,9 1,3 1,6 6,1 17 9 39 21 WSW 986,0 25 0 0,1
14.12.2017 14:00:00 2,2 1,5 1,7 1,2 1,5 6,1 21 11 44 24 WSW 985,3 15 0 1,0
14.12.2017 13:00:00 1,8 1,1 1,1 1,1 1,5 6,1 20 11 39 21 WSW 985,3 5 0 1,0
14.12.2017 12:00:00 2,7 1,1 1,9 1,1 1,5 6,1 21 11 45 24 WSW 984,7 25 0 0,2
14.12.2017 11:00:00 3,0 0,9 2,6 0,7 1,5 6,1 18 10 34 18 SW 984,4 40 0 0,0
14.12.2017 10:00:00 2,8 1,0 1,5 0,6 1,5 6,1 15 8 35 19 W 983,4 40 0 0,0
14.12.2017 09:00:00 2,7 1,1 1,5 0,4 1,5 6,2 20 11 39 21 WSW 982,4 40 0 0,0
14.12.2017 08:00:00 2,9 1,6 1,6 0,4 1,5 6,2 19 11 37 20 WSW 981,7 35 0 0,0
14.12.2017 07:00:00 3,3 2,0 2,1 0,5 1,5 6,2 16 9 32 17 WSW 980,8 35 0 0,0
14.12.2017 06:00:00 3,1 2,0 1,7 0,6 1,5 6,2 16 8 32 18 W 980,0 35 0 0,0
14.12.2017 05:00:00 3,0 2,4 2,2 0,5 1,5 6,2 19 11 44 24 W 979,3 30 0 0,1
14.12.2017 04:00:00 1,6 1,3 1,1 0,3 1,5 6,2 18 10 38 20 WSW 978,3 10 0 0,8
14.12.2017 03:00:00 0,5 0,1 0,1 0,4 1,5 6,3 15 8 34 18 S 978,9 2,0 0 1,2
14.12.2017 02:00:00 1,5 0,9 1,0 0,6 1,5 6,3 18 10 33 18 SSE 979,8 7 0 1,7
14.12.2017 01:00:00 2,2 1,5 1,6 0,7 1,5 6,3 21 11 40 22 S 981,4 4,0 0 0,5
14.12.2017 00:00:00 2,5 2,1 1,8 0,6 1,6 6,3 14 8 30 16 S 982,9 4,5 0 0,0
13.12.2017 23:00:00 1,9 1,8 1,5 0,5 1,6 6,3 16 9 32 17 S 984,5 1,7 0 0,0
13.12.2017 22:00:00 1,3 1,3 1,0 0,4 1,6 6,3 14 7 28 15 S 986,2 0,5 0 0,0
13.12.2017 21:00:00 0,8 0,7 0,6 0,4 1,6 6,3 21 11 32 18 SSW 987,8 0,9 0 0,0
13.12.2017 20:00:00 0,6 0,4 0,4 0,4 1,6 6,3 19 11 35 19 SSW 989,1 3,5 0 0,0
13.12.2017 19:00:00 0,5 0,2 0,0 0,4 1,6 6,3 17 9 36 19 SSW 990,2 4,0 0 0,6
13.12.2017 18:00:00 0,3 0,0 0,0 0,4 1,6 6,4 16 9 32 18 S 991,1 3,0 0 1,7
13.12.2017 17:00:00 0,3 0,1 0,0 0,4 1,6 6,4 16 9 39 21 S 992,2 1,0 0 2,4
13.12.2017 16:00:00 0,5 0,1 0,0 0,4 1,6 6,4 16 9 45 25 S 993,4 1,5 0 0,8
13.12.2017 15:00:00 0,9 0,3 0,4 0,5 1,6 6,4 22 12 45 25 S 994,5 4,0 0 0,0
13.12.2017 14:00:00 1,2 0,2 0,7 0,7 1,6 6,4 23 12 49 26 S 995,8 4,0 0 0,0
13.12.2017 13:00:00 1,6 0,3 0,9 0,7 1,6 6,4 24 13 52 28 S 997,4 8 0 0,0
13.12.2017 12:00:00 1,6 0,0 1,0 0,7 1,6 6,4 28 15 54 29 S 998,8 12 0 0,0
13.12.2017 11:00:00 1,2 -0,7 0,5 0,6 1,6 6,4 34 18 57 31 SSW 1000,7 5 0 0,0
13.12.2017 10:00:00 1,3 -1,0 1,0 0,5 1,6 6,4 24 13 48 26 SSW 1001,8 10 0 0,0
13.12.2017 09:00:00 1,3 -0,8 0,9 0,4 1,6 6,4 23 12 51 27 SSW 1003,0 7 0 0,0
13.12.2017 08:00:00 0,8 -0,9 0,3 0,4 1,6 6,4 26 14 42 23 SSW 1004,0 6 0 0,0
13.12.2017 07:00:00 0,6 -1,0 0,0 0,4 1,6 6,4 22 12 40 22 SSW 1005,0 6 0 0,0
13.12.2017 06:00:00 0,5 -0,9 0,0 0,4 1,6 6,5 19 10 34 19 SSW 1005,9 6 0 0,0
13.12.2017 05:00:00 0,8 -0,8 0,5 0,4 1,6 6,5 21 11 44 24 SSW 1006,7 7 0 0,0
13.12.2017 04:00:00 0,9 -0,4 0,6 0,4 1,6 6,5 25 14 45 24 SSW 1007,4 6 0 0,0
13.12.2017 03:00:00 0,9 -0,3 0,7 0,3 1,7 6,5 28 15 51 28 SW 1007,7 6 0 0,0
13.12.2017 02:00:00 1,2 0,2 0,9 0,3 1,7 6,5 25 14 50 27 SW 1007,9 6 0 0,0
13.12.2017 01:00:00 1,0 0,2 0,5 0,3 1,7 6,5 23 13 40 22 SW 1007,7 6 0 0,0
13.12.2017 00:00:00 0,9 0,1 -0,1 0,3 1,7 6,5 20 11 37 20 SW 1007,6 10 0 0,0
12.12.2017 23:00:00 1,3 0,3 0,2 0,3 1,7 6,5 20 11 36 19 SW 1007,2 15 0 0,0
12.12.2017 22:00:00 1,4 0,4 0,3 0,3 1,7 6,5 19 10 27 15 SW 1007,3 25 0 0,0
12.12.2017 21:00:00 1,2 -0,1 0,2 0,3 1,7 6,5 16 8 25 14 SW 1007,1 30 0 0,0
12.12.2017 20:00:00 1,1 -0,5 0,3 0,3 1,7 6,5 12 7 21 11 SW 1006,8 25 0 0,0
12.12.2017 19:00:00 0,2 -1,1 -1,4 0,3 1,7 6,6 9 5 17 9 SW 1006,1 24 0 0,0
12.12.2017 18:00:00 0,3 -1,1 -1,3 0,3 1,8 6,6 10 5 15 8 SW 1005,4 25 0 0,0
12.12.2017 17:00:00 0,1 -1,5 -2,3 0,4 1,8 6,6 10 5 18 10 WSW 1004,2 30 0 0,0

tt = Température de l'air
td = dewpoint
tt 5cm = Température de l'air 5cm
tt -5cm = Température de l'air -5cm
tt -20cm = Température de l'air -20cm
tt -100cm = Température de l'air -100cm
ff = Vitesse du vent
fx = gusts
dd = Direction du vent
ppp = reduced air pressure
vv = visibility
sd = Ensoleillement
rr = Quantités de précipitations

stations d'obs. à proximité